Starlink 4371

operational
NORAD ID: 53232 Int'l Des: 2022-084 Owner: SPXS Country: US Constellation: starlink
LEOCIRCULARRETROGRADESSO

About Starlink 4371

Description loading...

Live Position

Loading 3D Globe...

Upcoming Passes

Altitude History

Altitude vs Time

uPlot chart will show altitude changes over time

Two-Line Element Set

1 53232U 22084AV 26063.12115703 .00000971 00000-0 80100-4 0 9998
2 53232 97.6057 124.7546 0001122 165.4956 194.6301 15.01262823198486
Epoch: Mar 4, 2026 • Age: 19 hours

Current Status

Altitude 574.4 km
Velocity 7.58 km/s
Sub-Earth Point 65.47°N, 17.95°E
Launch Date Jul 22, 2022
Age 3.6 years
Type internet

Technical Details

Classification Payload
Mass 297.00 kg
Dry Mass 275.00 kg
Total Mass 297.00 kg
Length 0.20 m
Diameter 2.80 m
Span 9.00 m
Shape Box + pan
Manufacturer SPXS
Bus Type Starlink
Phase Status In Orbit
Owner/State SPXS/US

Large Constellations

Loading constellations...